TimeCDT,TemperatureF,Dew PointF,Humidity,Sea Level PressureIn,VisibilityMPH,Wind Direction,Wind SpeedMPH,Gust SpeedMPH,PrecipitationIn,Events,Conditions,WindDirDegrees,DateUTC
12:15 AM,47.1,38.7,72,30.05,10.0,WSW,15.0,18.4,N/A,,Overcast,250,2013-10-13 05:15:00
12:35 AM,46.6,39.2,75,30.06,10.0,West,13.8,17.3,N/A,,Overcast,260,2013-10-13 05:35:00
12:55 AM,46.4,39.6,77,30.07,10.0,West,10.4,16.1,N/A,,Overcast,260,2013-10-13 05:55:00
1:15 AM,46.6,39.6,77,30.08,10.0,WSW,9.2,-,N/A,,Overcast,250,2013-10-13 06:15:00
1:35 AM,46.4,39.7,78,30.09,10.0,West,6.9,-,N/A,,Overcast,260,2013-10-13 06:35:00
1:55 AM,46.0,40.6,81,30.10,10.0,West,9.2,-,N/A,,Overcast,260,2013-10-13 06:55:00
2:15 AM,46.4,40.6,80,30.11,10.0,West,8.1,-,N/A,,Overcast,270,2013-10-13 07:15:00
2:35 AM,46.8,40.5,79,30.12,10.0,West,8.1,18.4,N/A,,Overcast,270,2013-10-13 07:35:00
2:55 AM,46.4,41.0,81,30.13,10.0,WSW,11.5,-,N/A,,Overcast,240,2013-10-13 07:55:00
3:15 AM,45.5,44.1,95,30.13,4.0,West,8.1,-,N/A,,Unknown,260,2013-10-13 08:15:00
3:35 AM,45.5,44.6,97,30.14,7.0,West,8.1,-,N/A,,Light Drizzle,260,2013-10-13 08:35:00
3:55 AM,45.5,44.6,97,30.14,10.0,West,6.9,-,N/A,,Overcast,260,2013-10-13 08:55:00
4:15 AM,45.7,44.6,96,30.15,7.0,West,6.9,-,N/A,,Drizzle,280,2013-10-13 09:15:00
4:35 AM,45.5,43.9,94,30.16,10.0,West,9.2,-,N/A,,Overcast,280,2013-10-13 09:35:00
4:55 AM,45.5,43.3,92,30.16,10.0,WNW,6.9,-,N/A,,Overcast,290,2013-10-13 09:55:00
5:15 AM,45.5,42.8,90,30.17,10.0,WNW,8.1,-,N/A,,Overcast,300,2013-10-13 10:15:00
5:35 AM,45.5,41.9,87,30.18,10.0,WNW,11.5,-,N/A,,Overcast,290,2013-10-13 10:35:00
5:55 AM,45.5,39.2,79,30.18,10.0,NW,8.1,-,N/A,,Overcast,310,2013-10-13 10:55:00
6:15 AM,45.5,39.0,78,30.20,10.0,WNW,6.9,-,N/A,,Overcast,290,2013-10-13 11:15:00
6:35 AM,44.8,38.5,79,30.21,10.0,WNW,5.8,-,N/A,,Overcast,290,2013-10-13 11:35:00
6:55 AM,44.8,38.3,78,30.22,10.0,WNW,4.6,-,N/A,,Overcast,300,2013-10-13 11:55:00
7:15 AM,44.6,38.7,80,30.22,10.0,West,5.8,-,N/A,,Overcast,270,2013-10-13 12:15:00
7:35 AM,44.8,37.8,76,30.23,10.0,WNW,5.8,-,N/A,,Overcast,290,2013-10-13 12:35:00
7:55 AM,45.0,37.8,76,30.25,10.0,West,5.8,-,N/A,,Overcast,260,2013-10-13 12:55:00
8:15 AM,45.1,37.9,76,30.25,10.0,West,5.8,-,N/A,,Overcast,280,2013-10-13 13:15:00
8:35 AM,45.7,37.9,74,30.26,10.0,West,5.8,-,N/A,,Overcast,280,2013-10-13 13:35:00
8:55 AM,45.9,37.8,73,30.28,10.0,WNW,6.9,-,N/A,,Overcast,290,2013-10-13 13:55:00
9:15 AM,46.4,37.4,71,30.28,10.0,WNW,6.9,-,N/A,,Overcast,290,2013-10-13 14:15:00
9:35 AM,47.3,37.4,68,30.30,10.0,WNW,6.9,-,N/A,,Overcast,300,2013-10-13 14:35:00
9:55 AM,47.1,36.7,67,30.32,10.0,WNW,9.2,-,N/A,,Overcast,290,2013-10-13 14:55:00
10:15 AM,47.3,36.9,67,30.32,10.0,NW,5.8,-,N/A,,Overcast,310,2013-10-13 15:15:00
10:55 AM,46.4,37.0,70,30.34,10.0,NNW,9.2,-,N/A,,Overcast,340,2013-10-13 15:55:00
11:15 AM,46.4,36.7,69,30.35,10.0,NNW,11.5,-,N/A,,Overcast,340,2013-10-13 16:15:00
11:35 AM,47.5,37.0,67,30.35,10.0,NNW,10.4,-,N/A,,Overcast,330,2013-10-13 16:35:00
11:55 AM,48.4,34.7,59,30.35,10.0,NNW,10.4,-,N/A,,Overcast,330,2013-10-13 16:55:00
12:15 PM,48.9,34.9,58,30.36,10.0,NNW,8.1,-,N/A,,Overcast,340,2013-10-13 17:15:00
12:35 PM,48.9,34.3,57,30.35,10.0,North,8.1,-,N/A,,Overcast,10,2013-10-13 17:35:00
12:55 PM,50.0,34.3,55,30.35,10.0,NW,5.8,-,N/A,,Overcast,310,2013-10-13 17:55:00
1:15 PM,49.3,34.2,56,30.35,10.0,NW,3.5,-,N/A,,Overcast,320,2013-10-13 18:15:00
1:35 PM,51.4,34.0,51,30.34,10.0,North,8.1,-,N/A,,Overcast,350,2013-10-13 18:35:00
1:55 PM,50.9,33.6,52,30.34,10.0,North,5.8,-,N/A,,Overcast,360,2013-10-13 18:55:00
2:15 PM,52.9,31.6,44,30.33,10.0,NNW,8.1,-,N/A,,Mostly Cloudy,330,2013-10-13 19:15:00
2:35 PM,54.1,31.8,43,30.33,10.0,West,9.2,-,N/A,,Mostly Cloudy,270,2013-10-13 19:35:00
2:55 PM,53.6,33.1,46,30.33,10.0,WNW,4.6,9.2,N/A,,Mostly Cloudy,290,2013-10-13 19:55:00
3:15 PM,53.4,32.0,44,30.33,10.0,Calm,Calm,-,N/A,,Mostly Cloudy,0,2013-10-13 20:15:00
3:35 PM,54.1,30.6,41,30.33,10.0,West,4.6,-,N/A,,Scattered Clouds,270,2013-10-13 20:35:00
3:55 PM,53.8,29.8,40,30.33,10.0,West,5.8,-,N/A,,Clear,280,2013-10-13 20:55:00
4:15 PM,54.3,30.0,39,30.33,10.0,WNW,8.1,-,N/A,,Clear,300,2013-10-13 21:15:00
4:35 PM,54.0,30.0,40,30.33,10.0,NNW,8.1,-,N/A,,Clear,340,2013-10-13 21:35:00
4:55 PM,53.1,29.1,40,30.34,10.0,NNW,6.9,-,N/A,,Clear,330,2013-10-13 21:55:00
5:15 PM,52.0,29.8,43,30.34,10.0,NW,5.8,-,N/A,,Clear,310,2013-10-13 22:15:00
5:35 PM,51.8,30.6,44,30.34,10.0,Calm,Calm,-,N/A,,Clear,0,2013-10-13 22:35:00
5:55 PM,50.2,30.7,47,30.34,10.0,Calm,Calm,-,N/A,,Clear,0,2013-10-13 22:55:00
6:15 PM,46.8,32.5,58,30.35,10.0,Calm,Calm,-,N/A,,Clear,0,2013-10-13 23:15:00
6:35 PM,42.6,33.1,69,30.35,10.0,Calm,Calm,-,N/A,,Clear,0,2013-10-13 23:35:00
6:55 PM,41.9,34.2,74,30.36,10.0,Calm,Calm,-,N/A,,Clear,0,2013-10-13 23:55:00
7:15 PM,39.2,33.4,80,30.36,10.0,Calm,Calm,-,N/A,,Clear,0,2013-10-14 00:15:00
7:35 PM,38.8,33.1,80,30.37,10.0,Calm,Calm,-,N/A,,Clear,0,2013-10-14 00:35:00
7:55 PM,38.8,33.4,81,30.37,10.0,Calm,Calm,-,N/A,,Clear,0,2013-10-14 00:55:00
8:15 PM,35.4,33.6,93,30.38,10.0,Calm,Calm,-,N/A,,Clear,0,2013-10-14 01:15:00
8:35 PM,35.8,33.6,92,30.38,10.0,Calm,Calm,-,N/A,,Clear,0,2013-10-14 01:35:00
8:55 PM,33.8,31.6,92,30.39,10.0,Calm,Calm,-,N/A,,Clear,0,2013-10-14 01:55:00
9:15 PM,34.7,34.0,97,30.39,10.0,Calm,Calm,-,N/A,,Clear,0,2013-10-14 02:15:00
9:35 PM,33.4,33.4,100,30.39,10.0,Calm,Calm,-,N/A,,Clear,0,2013-10-14 02:35:00
9:55 PM,33.6,33.6,100,30.39,10.0,Calm,Calm,-,N/A,,Clear,0,2013-10-14 02:55:00
10:15 PM,31.8,31.8,100,30.40,10.0,Calm,Calm,-,N/A,,Clear,0,2013-10-14 03:15:00
10:35 PM,32.0,32.0,100,30.40,1.5,Calm,Calm,-,N/A,,Mist,0,2013-10-14 03:35:00
10:55 PM,32.0,32.0,100,30.40,10.0,Calm,Calm,-,N/A,,Clear,0,2013-10-14 03:55:00
11:15 PM,30.6,30.6,100,30.41,4.0,Calm,Calm,-,N/A,,Clear,0,2013-10-14 04:15:00
11:35 PM,30.9,30.9,100,30.41,2.5,Calm,Calm,-,N/A,,Clear,0,2013-10-14 04:35:00
11:55 PM,30.0,30.0,100,30.41,0.8,Calm,Calm,-,N/A,,Mist,0,2013-10-14 04:55:00